User: anonymous   Login
Location: El Bakhil
(32.7726°N, 5.5387°W)
Time: 01:54:50
(UTC+00:00)
Language:

Cosmos 1500 - Orbit

View from above orbital plane
View from above orbital plane
View from above satellite
View from above satellite

Ground track
Ground track

The orbit data is extracted from the following two-line orbital elements,

1 14372U 83099A   23026.33503244  .00010882  00000-0  44552-3 0  9995
2 14372  82.5138 113.4584 0014241 142.7126 217.5103 15.24086075148524
Epoch (UTC): 26 January 2023 08:02:26
Eccentricity: 0.0014241
inclination: 82.5138°
perigee height: 484 km
apogee height: 503 km
right ascension of ascending node: 113.4584°
argument of perigee: 142.7126°
revolutions per day: 15.24086075
mean anomaly at epoch: 217.5103°
orbit number at epoch: 14852

The dashed part of the orbit path shows where the satellite is in the earth's shadow,  

DLR